Showing default

BSAT-2A, 26720

Orbit data source: Space-Track

BSAT-2A, 26720 is a payload satellite owned by BSAT (JP) in GEO that was launched on Thu, 08 Mar 2001 UTC via an ARIANE 5G launch vehicle from the French Guiana (FRGUI). Payload-class satellites include a variety of spacecraft equipped with specific instruments for various scientific and technological missions. These include communications satellites like Starlink; space stations such as the ISS; scientific satellites like the Hubble; Earth observation satellites from companies like Planet Labs, Umbra, and HawkEye 360; GPS; miniature CubeSats for education and research; and military/defense satellites.

Loading next visibility...
Identifier
26720, 2001-011B
Orbit
GEO
Country
Flag of JPJP / JPN
Related business
Manufacturer
OSCD?
Mission
Partially operational Commercial Communications
Bus & Motor
OSC STAR 1, STAR 30CBP
Mass
1,317 kg wet, 490 kg dry
Launch date (UTC)
2001-03-08 (25 years ago)
Launch vehicle
ARIANE 5G
Launch site
French Guiana (FRGUI)
Object type
Payload
Rocket body
Debris
Shape & HBR
Box + 2 Pan, 8.1 m
Radar Cross Section
21.750 m², Large (>1 m²)

Expand to show TLE details & history
Last TLE update: 18 hours ago

TLE from 18 hours ago
0 BSAT-2A
1 26720U 01011B   26062.79446851 -.00000264  00000-0  00000-0 0  9993
2 26720  10.5098  48.4457 0005989 234.3668 135.0126  0.99180562 90936
Epoch: 2026-03-03T19:04Z
TLE epoch observation values (Epoch: 2026-03-03T19:04:02.079Z)
Latitude
1.69679°
Longitude
-29.83937°
Altitude
36,112.499 km
Speed
3.062 km/s
True Right ascension
03h 50m 57s
True Declination
1° 41' 42"
Sunlit
Object was in daylight at epoch
Visualization orbit readout
Latitude
Unknown
Longitude
Unknown
Altitude
Unknown
Speed
Unknown
Apparent Right ascension
Unknown
Apparent Declination
Unknown
Sunlit
N/A
Visualization observer readout
Local Sidereal Time
16:33:30
Azimuth
Unknown
Elevation
Unknown
Doppler factor
Unknown
Orbital elements
Apogee altitude
36,121.755 km
Perigee altitude
36,070.879 km
Semi-major axis
42,474.454 km
Eccentricity
0.0006
Inclination
10.5098°
RAAN
48.4457°
Arg. of periapsis
234.3668°
True anomaly
135.06109°
Mean anomaly
135.0126°
Eccentric anomaly
135.03685°
Mean motion
0.24794 °/min
Orbital period
1,451.95 mins
BSTAR
0
Loading maneuver chart data...
Computing Atmospheric mass density...
Loading historical data...
Loading historical data...
Loading historical data...
Loading historical data...
Loading historical data...
Loading historical data...
Loading historical data...
Other satellites on launch #11 in the year 2001 (2001-03-08 UTC)

Documentation

Showing up to 5 results
|